Tracking 30258 objects as of 19-Feb-2025
HD Live streaming from Space Station
objects crossing your sky now

STARLINK-1523

Track STARLINK-1523 now!
10-day predictions
STARLINK-1523 is classified as:


NORAD ID: 46028
Int'l Code: 2020-055B
Perigee: 553.3 km
Apogee: 555.3 km
Inclination: 53.1 °
Period: 95.6 minutes
Semi major axis: 6925 km
RCS: Unknown
Launch date: August 7, 2020
Source: United States (US)
Launch site: AIR FORCE EASTERN TEST RANGE (AFETR)
Your satellite tracking list
Your tracking list is empty




NASA's NSSDC Master Catalog

Two Line Element Set (TLE):
1 46028U 20055B   25050.29170346  .00003667  00000-0  26489-3 0  9990
2 46028  53.0539  47.7569 0001454  89.9262 270.1894 15.06407917251116
Source of the keplerian elements: AFSPC